SCP
0 0 0 0 0 0 -0 0 0 0 0 0 0 -0 -0 0 0 0 0 0 0 0 0 0 0 -0 0 -0 -0 -0 0 -0 0 -0 0 -0 -0 -0 -0 -0 -0 -0 -0 -0 -0 -0 -0 -0 -0
0 0 0 0 0 0 0 0 0 0 0 0 0 -0 0 0 0 -0 0 0 0 0 0 0 0 0 0 0 0 0 0 0 0 0 0 0 -0 -0 -0 -0 -0 -0 -0 -0 -0 -0 -0 -0 -0
0 0 1 0 0 0 0 0 0 0 0 0 0 0 0 0 -0 0 0 -0 0 0 0 0 0 0 0 0 0 0 0 0 0 0 0 -0 -0 -0 -0 -0 -0 -0 -0 -0 -0 -0 -0 -0 -0
1 1 1 0 0 0 0 0 0 0 0 0 0 0 0 0 0 0 -0 -0 -0 0 0 0 0 0 0 0 0 0 0 0 0 0 -0 0 -0 -0 -0 -0 -0 -0 -0 -0 -0 -0 -0 -0 -0
1 1 0 0 0 0 0 0 0 0 0 0 0 0 0 0 -0 0 -0 0 0 -0 -0 -0 0 0 0 0 0 0 0 0 0 -0 -0 -0 -0 -0 -0 0 -0 -0 -0 -0 0 -0 -0 0 -0
1 0 0 0 0 0 0 0 0 0 0 0 0 0 0 -0 -0 -0 -0 -0 -0 -0 -0 -0 -0 -0 -0 -0 -0 0 0 0 0 -0 -0 -0 -0 -0 -0 -0 0 -0 -0 -0 -0 -0 -0 -0 -0
1 0 0 0 0 0 0 0 -0 0 0 0 0 0 0 -0 0 -0 -0 -0 -0 -0 -0 -0 0 0 0 -0 -0 -0 -0 -0 -0 0 -0 -0 -0 -0 -0 0 0 0 -0 -0 -0 0 -0 0 -0
1 0 0 0 0 0 0 0 0 0 0 0 0 0 0 -0 0 0 -0 0 -0 -0 -0 -0 0 0 0 0 -0 -0 -0 -0 -0 -0 0 -0 -0 -0 -0 -0 0 0 0 -0 0 0 -0 0 -0
0 -0 0 0 0 0 0 0 0 0 0 0 -0 0 -0 0 0 0 -0 -0 -0 -0 0 -0 -0 0 0 -0 -0 -0 -0 -0 -0 0 0 0 -0 0 -0 -0 0 0 -0 0 0 0 0 0 0
0 0 0 0 0 0 0 0 0 0 0 0 -0 0 -0 -0 -0 -0 0 0 -0 -0 0 -0 -0 -0 0 0 0 0 0 -0 -0 -0 -0 -0 0 0 0 -0 -0 0 0 0 0 0 0 0 -0
0 0 0 0 0 0 0 1 1 0 0 0 0 -0 0 0 -0 -0 -0 0 -0 -0 -0 -0 -0 -0 -0 -0 -0 0 0 0 -0 -0 -0 -0 0 0 0 0 -0 -0 0 -0 -0 -0 -0 -0 -0
0 -0 0 0 0 0 0 0 0 0 0 0 0 -0 -0 0 -0 -0 -0 -0 -0 0 -0 0 0 -0 -0 -0 -0 -0 0 -0 -0 -0 -0 0 -0 0 0 0 0 -0 -0 -0 -0 -0 -0 -0 -0
0 0 0 0 0 0 0 0 0 0 0 0 0 0 0 0 0 0 -0 -0 0 -0 -0 0 -0 0 0 -0 0 0 0 0 0 -0 0 -0 -0 0 0 0 0 -0 0 0 0 -0 -0 -0 -0
-0 0 0 0 0 0 0 0 0 0 0 0 0 0 0 -0 0 -0 0 0 0 0 0 0 0 0 0 0 0 0 0 0 0 -0 -0 0 0 0 0 0 0 -0 0 0 0 -0 0 -0 -0
0 0 0 0 0 0 0 0 0 0 0 0 0 0 0 0 -0 -0 -0 0 -0 0 0 -0 0 0 -0 -0 -0 0 0 -0 -0 -0 0 0 0 0 -0 0 0 0 -0 -0 -0 0 0 0 0
-0 0 0 0 0 0 0 0 0 0 0 0 0 0 0 -0 -0 -0 -0 -0 0 0 0 0 -0 -0 -0 -0 -0 -0 -0 -0 0 0 0 0 0 0 0 -0 0 0 0 0 -0 -0 -0 0 -0
0 0 0 -0 -0 0 -0 0 0 0 0 0 0 0 0 -0 -0 -0 -0 -0 -0 -0 -0 -0 -0 -0 -0 0 -0 -0 -0 -0 0 0 0 0 0 0 -0 0 0 0 0 0 0 -0 -0 -0 0
-0 0 0 0 -0 -0 0 0 -0 -0 0 0 0 0 -0 -0 -0 -0 -0 -0 -0 -0 -0 -0 -0 -0 -0 -0 0 0 0 0 0 0 0 0 0 -0 0 0 0 -0 -0 0 0 0 0 0 0
0 -0 0 -0 0 0 -0 0 0 -0 0 0 0 0 -0 -0 -0 -0 -0 -0 -0 -0 -0 -0 -0 -0 0 0 0 0 0 0 0 0 -0 0 0 0 0 -0 0 0 0 0 0 0 0 0 0
0 0 0 0 -0 0 0 0 0 0 0 0 0 0 -0 0 -0 -0 0 -0 -0 -0 0 0 0 0 0 0 0 0 0 0 0 0 0 -0 0 0 0 0 0 0 0 0 0 0 0 0 0
-0 -0 0 0 0 0 -0 -0 0 0 0 0 0 0 -0 -0 -0 -0 0 -0 0 0 0 0 0 0 0 0 0 -0 0 0 0 -0 -0 -0 0 0 0 0 0 -0 -0 0 0 0 0 0 0
-0 -0 0 0 0 0 0 0 0 0 0 0 0 0 -0 -0 -0 -0 -0 -0 -0 0 0 0 0 0 0 0 0 0 0 0 0 -0 -0 0 -0 -0 -0 -0 -0 -0 0 0 0 0 0 0 0
-0 -0 -0 -0 0 0 0 0 -0 0 0 0 0 0 -0 -0 -0 -0 -0 -0 -0 0 0 0 0 0 0 0 0 0 0 0 0 -0 -0 -0 0 -0 -0 -0 -0 0 0 0 0 0 0 0 0
-0 0 0 0 0 0 0 0 0 0 -0 0 0 0 -0 -0 -0 -0 -0 -0 -0 0 0 0 0 0 -0 0 0 0 0 0 0 -0 -0 0 0 0 0 0 0 0 0 0 0 0 0 0 0
0 0 0 0 0 0 0 0 -0 0 0 0 -0 0 0 -0 -0 -0 -0 -0 -0 -0 -0 0 0 0 -0 0 0 0 0 0 0 0 0 0 0 0 0 0 0 0 0 0 0 0 0 0 0
0 0 0 0 0 0 0 0 0 0 -0 0 0 0 0 0 -0 -0 -0 -0 -0 -0 -0 -0 0 0 0 -0 -0 0 0 0 0 0 0 0 0 0 0 0 0 0 0 0 0 0 0 0 0
0 0 0 0 0 0 0 0 0 0 -0 0 0 0 0 -0 -0 -0 -0 -0 -0 -0 -0 -0 -0 0 0 0 0 0 0 0 0 0 0 0 0 0 0 0 0 0 0 0 0 0 0 0 0
0 0 0 0 0 0 0 0 0 0 -0 -0 0 -0 -0 0 -0 -0 -0 -0 -0 -0 -1 -0 -0 -0 0 0 0 0 0 0 0 0 0 0 0 0 0 0 0 0 0 0 0 0 0 0 0
0 0 0 0 0 0 0 0 0 0 -0 -0 0 0 0 0 -0 -0 -0 -0 -0 -1 -1 -1 -0 -0 0 0 0 0 0 0 0 0 0 0 0 0 0 0 0 0 0 0 0 0 0 0 0
0 0 0 0 0 0 0 0 0 0 0 0 0 0 0 0 0 -0 -0 -1 -1 -1 -1 -1 -0 -0 -0 0 0 0 0 0 0 0 0 0 0 0 0 0 0 0 0 0 0 0 0 0 0
Wind_Speed_500mb
18 17 16 9 5 9 4 3 5 8 9 6 32 7 9 15 4 5 44 32 40 42 41 38 36 34 33 34 32 33 32 30 27 23 21 22 23 27 28 26 24 22 17 16 14 15 18 20 22
19 15 8 2 8 7 3 4 3 6 18 42 23 17 13 7 4 40 54 36 38 43 40 37 35 32 30 31 33 32 31 29 25 21 20 21 24 24 23 22 23 21 20 18 17 21 22 25 26
13 5 2 4 7 5 6 2 3 15 33 41 10 17 8 7 39 66 51 49 43 42 38 37 33 30 29 28 30 29 27 26 23 22 21 21 22 22 22 24 23 23 21 20 18 22 25 24 24
5 3 2 8 10 4 10 7 17 26 29 10 29 13 13 6 39 44 53 49 43 38 36 35 33 28 26 25 25 25 23 20 20 21 20 21 21 21 22 21 22 22 22 20 22 22 22 22 22
5 1 8 7 9 6 24 31 18 14 14 32 10 6 10 38 22 49 51 47 41 38 34 32 28 25 24 24 23 20 18 16 16 18 16 16 18 19 16 18 19 19 20 20 21 21 20 19 23
5 5 9 10 14 13 11 27 18 16 19 24 23 16 5 27 41 51 45 42 37 33 30 28 27 25 22 21 21 19 16 13 12 13 13 13 15 15 13 13 16 18 19 19 22 22 22 20 19
4 7 4 15 13 9 9 24 6 19 24 15 26 9 20 45 49 46 42 38 33 29 29 25 24 22 21 20 19 18 13 11 9 9 12 10 12 9 7 13 16 16 18 17 22 24 19 19 19
6 6 1 6 12 7 22 8 17 16 11 29 21 11 19 62 52 45 39 35 32 29 21 21 19 19 19 18 18 14 10 8 7 7 9 9 7 1 3 9 13 17 17 19 21 23 20 19 18
9 8 5 9 11 12 31 10 12 11 27 8 4 30 59 66 55 47 41 36 33 29 23 23 22 19 18 19 18 14 11 8 8 7 7 8 5 4 4 10 17 18 20 19 19 20 21 24 23
8 8 12 11 11 13 35 26 27 14 12 10 18 41 65 62 55 48 42 40 34 35 28 24 25 23 22 21 16 11 12 11 8 7 8 8 7 6 4 6 13 18 16 19 20 20 21 24 27
7 10 8 9 21 37 29 34 18 34 4 18 55 77 64 59 54 46 41 35 32 33 26 26 29 28 26 21 13 12 11 11 9 10 9 9 12 10 7 2 3 11 16 18 18 20 22 22 26
7 9 9 18 27 19 15 33 22 6 11 33 66 73 66 56 54 48 42 39 36 36 31 27 29 25 23 21 12 12 12 13 12 10 11 12 17 18 15 10 7 5 13 16 19 19 28 26 26
8 3 22 29 28 25 31 29 21 16 37 41 55 61 60 53 47 44 35 33 34 39 33 34 28 23 23 24 20 12 16 17 14 17 13 14 17 20 24 17 19 15 16 16 20 23 25 29 28
17 17 20 28 41 22 26 29 15 25 52 55 55 60 56 51 47 40 42 39 41 37 40 35 37 27 26 25 21 19 18 20 19 13 11 18 21 23 21 23 29 23 24 22 20 18 15 26 26
15 10 11 8 12 7 25 8 9 51 54 60 56 53 53 50 46 44 43 44 39 37 33 32 30 31 31 28 26 24 23 19 15 9 15 18 23 28 32 31 26 26 20 29 24 28 21 26 28
7 9 5 6 2 2 11 3 22 50 53 48 56 57 56 54 51 45 44 44 39 39 44 38 32 31 33 25 20 25 28 27 15 10 11 13 14 18 21 28 29 28 30 31 32 29 32 32 33
11 5 5 8 4 5 8 8 22 53 51 54 60 65 66 60 59 53 50 49 47 43 45 48 39 27 21 16 15 14 23 21 18 15 14 14 12 5 9 12 18 20 19 21 22 28 28 27 27
8 5 9 5 12 10 7 12 30 56 56 57 58 61 70 68 67 64 59 48 51 52 50 42 42 34 26 19 17 12 16 19 23 20 16 15 10 10 13 12 10 8 14 16 18 16 18 22 25
4 9 9 12 13 3 13 18 31 52 51 43 45 55 65 70 57 59 56 49 56 58 58 54 51 41 39 31 21 21 17 15 18 20 16 8 10 6 10 15 13 9 11 9 5 12 16 20 20
9 9 11 6 9 1 9 10 16 20 44 52 51 60 66 72 64 61 68 46 63 54 63 65 57 47 40 31 24 14 16 12 11 13 10 10 9 5 8 12 12 10 13 8 9 16 19 21 12
7 9 8 5 8 2 6 9 13 15 32 39 41 50 70 73 68 72 77 66 69 57 65 64 65 55 45 34 26 23 21 21 10 12 11 13 13 12 10 12 11 9 13 14 16 17 21 25 20
13 8 16 14 10 14 9 12 11 14 18 21 46 47 71 72 73 76 74 68 72 63 52 59 60 58 49 39 30 29 26 26 32 22 21 19 14 12 11 18 15 12 14 17 20 20 25 24 24
23 5 22 28 12 9 1 5 16 1 16 19 38 66 63 80 78 82 77 64 67 67 55 56 62 56 54 47 34 23 27 27 29 26 24 30 21 18 22 20 15 17 23 23 21 24 29 32 32
10 8 11 9 10 3 13 19 13 11 32 12 33 62 60 64 84 82 78 68 69 65 49 41 58 58 50 48 37 31 21 26 28 23 32 32 31 29 27 27 25 24 26 29 30 31 33 32 20
6 12 6 5 2 10 9 13 27 11 16 22 33 49 55 63 73 80 84 79 70 73 59 38 43 54 50 47 41 34 32 26 27 26 32 33 34 34 32 25 25 27 28 30 28 27 25 21 12
11 17 11 9 7 9 13 12 14 10 24 28 33 50 55 52 65 79 82 88 77 73 79 52 41 57 53 42 41 37 35 31 27 31 31 33 32 27 23 24 25 27 28 27 25 22 20 18 16
1 7 10 12 7 4 5 14 18 3 15 11 19 29 44 58 69 73 82 91 82 70 76 62 46 51 51 42 39 34 31 29 27 26 28 30 29 27 28 29 30 30 29 25 21 16 14 11 12
13 10 3 5 6 9 8 8 11 12 18 17 16 39 61 59 62 69 75 82 80 65 61 56 43 48 45 40 35 32 28 28 26 24 26 26 27 28 29 27 27 25 19 13 9 8 9 9 11
6 2 5 10 9 12 7 13 17 21 27 27 28 50 56 67 66 67 70 79 79 65 67 58 48 48 40 34 34 32 29 29 28 26 26 26 26 23 23 20 14 11 10 6 5 3 5 10 10
11 16 14 10 11 6 6 14 11 24 14 15 29 41 50 57 72 60 73 81 80 76 70 60 56 48 41 41 35 25 23 26 24 21 19 17 16 16 11 8 6 4 3 5 2 1 1 8 9
Wind_Direction_500mb
138 146 138 135 63 70 350 354 53 111 130 121 149 112 101 36 52 167 147 147 151 144 139 138 133 131 127 127 130 133 131 132 135 135 137 136 140 144 147 149 152 157 161 152 144 143 149 147 143
131 141 140 84 73 65 325 261 247 149 141 143 88 113 46 74 86 137 147 155 152 149 146 144 140 134 129 128 136 135 136 137 137 142 148 149 147 149 154 151 148 148 151 150 146 138 146 148 148
112 54 68 86 102 130 157 208 29 81 127 147 118 84 77 104 126 140 154 157 159 152 150 148 146 141 136 135 135 137 139 139 139 142 142 140 148 146 150 150 152 150 147 141 136 138 148 149 144
87 7 351 60 82 341 141 97 124 120 130 135 120 69 80 184 138 156 154 158 159 154 151 152 149 148 143 136 138 143 141 138 136 137 138 136 132 142 146 149 155 152 151 146 149 145 147 142 140
343 34 40 74 69 57 110 185 165 145 118 132 127 95 73 150 153 151 156 158 162 156 157 159 162 155 149 148 147 145 141 142 142 141 134 130 131 134 142 147 151 150 150 151 154 154 150 153 153
329 32 51 84 99 99 129 176 161 93 104 111 98 91 82 168 162 153 157 158 161 161 160 163 158 155 154 156 156 156 152 148 142 142 145 134 136 141 145 151 157 157 156 156 158 157 154 157 159
179 88 285 98 107 137 150 143 281 127 123 97 123 86 134 150 156 152 156 158 161 164 164 167 163 161 165 168 167 164 166 164 152 155 162 156 151 141 167 171 171 171 167 169 164 159 159 165 176
196 91 201 103 176 183 150 108 130 93 66 126 107 163 167 158 154 153 158 162 165 166 173 181 185 185 177 171 171 172 180 180 180 173 177 182 173 195 208 208 192 179 181 182 180 176 170 179 189
185 65 205 142 164 144 154 135 170 99 129 108 128 157 162 155 158 165 172 177 180 180 179 190 191 189 184 177 176 180 196 194 201 193 206 189 197 255 326 265 210 196 190 198 195 194 191 187 195
146 125 209 188 147 149 167 157 137 126 126 67 112 149 152 159 168 176 183 186 187 188 188 183 184 185 188 184 189 201 220 209 208 187 191 196 197 224 16 4 191 192 201 207 209 214 218 212 206
147 169 171 135 156 150 146 135 126 139 199 203 153 152 160 167 176 186 192 206 197 190 196 185 182 194 201 190 204 241 242 230 199 191 192 207 214 235 279 313 187 197 221 232 233 238 241 233 225
101 91 134 143 153 140 122 133 134 110 197 171 160 162 166 176 185 189 196 200 203 200 193 177 180 195 200 206 211 226 243 227 203 215 226 245 245 259 256 265 269 236 243 247 243 248 250 242 235
34 42 92 127 152 127 130 145 142 131 147 152 158 170 178 190 198 203 206 209 212 211 202 197 193 197 209 222 230 269 250 241 246 242 251 271 252 252 249 260 262 257 262 271 267 264 263 238 256
75 95 99 112 94 77 107 137 118 150 156 159 167 177 185 192 195 196 204 207 212 216 220 217 214 219 225 231 235 259 249 243 247 254 267 283 267 263 265 271 261 246 264 266 265 255 248 254 264
111 65 35 32 115 94 113 56 135 158 162 166 177 183 192 199 200 202 194 204 207 213 215 220 220 224 231 237 238 233 246 248 246 284 304 291 276 263 270 278 285 288 266 291 292 292 282 270 265
77 70 356 281 214 1 120 47 140 166 167 180 186 196 202 204 205 210 212 213 210 213 221 222 218 217 224 231 232 239 239 240 245 298 294 313 298 255 260 271 283 290 285 282 291 284 275 274 270
358 233 230 237 306 139 107 148 166 180 184 191 198 201 210 214 214 217 218 219 219 218 218 221 214 211 216 214 230 250 218 232 249 274 293 303 351 308 287 288 289 277 283 288 288 287 281 282 283
196 192 266 248 216 150 116 162 170 187 196 205 204 212 210 213 222 217 219 219 225 227 225 216 216 211 204 209 218 226 223 231 253 265 269 292 288 285 302 292 300 297 276 284 288 283 281 288 286
196 172 226 271 169 147 188 156 177 193 209 216 210 211 212 221 228 225 216 221 222 224 225 219 215 209 206 202 203 222 228 245 268 271 251 274 279 292 292 296 276 300 299 287 297 309 302 303 296
210 190 244 308 109 141 177 206 205 194 210 213 216 218 222 220 223 219 208 213 212 216 220 220 218 214 217 214 208 215 208 236 251 251 237 247 256 291 318 294 283 265 277 275 269 275 288 296 300
262 231 211 197 137 41 110 282 219 234 230 226 224 230 229 222 214 212 211 211 212 217 214 216 219 215 221 214 212 216 208 187 234 249 232 258 262 271 267 269 260 272 275 273 261 257 263 279 284
285 215 252 181 152 221 155 267 265 206 233 230 227 223 232 224 216 208 208 211 213 218 217 220 214 217 220 218 226 236 250 217 225 245 237 231 258 279 271 258 266 269 281 279 271 272 273 281 286
250 232 252 197 151 109 195 67 272 331 251 223 222 226 222 220 214 210 209 213 211 211 215 223 221 220 216 221 221 244 251 235 238 224 235 235 254 267 273 266 260 270 281 282 286 281 282 282 281
265 292 13 37 120 115 228 179 280 195 228 216 226 223 223 217 216 216 209 211 209 205 205 215 215 217 219 221 223 239 235 237 231 244 229 242 258 274 267 260 274 286 288 291 292 288 284 283 290
114 62 312 5 93 207 224 139 237 258 227 202 215 219 217 221 215 215 211 205 205 205 205 206 219 220 216 217 224 231 225 234 240 237 234 243 255 269 278 266 281 291 297 298 298 297 293 289 271
202 162 160 229 220 246 156 228 248 191 254 226 238 226 216 220 215 215 215 208 202 206 209 214 225 223 222 221 219 217 222 238 231 226 241 243 255 260 267 282 297 298 298 299 298 294 294 297 284
282 207 202 106 10 80 242 293 307 228 245 214 200 203 216 223 217 215 215 209 202 205 210 217 222 220 219 217 220 221 223 224 227 241 241 246 257 269 281 288 290 293 296 294 288 284 286 286 290
159 178 319 0 180 235 280 272 237 271 222 207 199 216 230 228 220 216 216 206 202 199 203 209 212 207 207 211 215 221 220 228 238 240 243 248 257 269 279 286 289 292 295 296 289 278 256 262 289
292 222 79 132 137 178 209 257 217 225 233 194 205 207 207 213 209 212 213 205 201 197 199 201 202 202 205 205 211 217 216 224 224 228 239 250 261 273 283 289 298 297 281 272 273 247 232 272 299
167 209 158 134 259 187 172 268 230 222 244 174 212 201 211 217 204 205 201 197 195 192 194 200 194 200 206 201 200 197 202 202 212 215 225 243 264 277 283 296 306 280 171 107 108 100 234 298 313
Wind_Speed_850mb
18 17 16 9 5 9 4 3 5 8 9 6 32 7 9 15 4 5 44 32 40 42 41 38 36 34 33 34 32 33 32 30 27 23 21 22 23 27 28 26 24 22 17 16 14 15 18 20 22
19 15 8 2 8 7 3 4 3 6 18 42 23 17 13 7 4 40 54 36 38 43 40 37 35 32 30 31 33 32 31 29 25 21 20 21 24 24 23 22 23 21 20 18 17 21 22 25 26
13 5 2 4 7 5 6 2 3 15 33 41 10 17 8 7 39 66 51 49 43 42 38 37 33 30 29 28 30 29 27 26 23 22 21 21 22 22 22 24 23 23 21 20 18 22 25 24 24
5 3 2 8 10 4 10 7 17 26 29 10 29 13 13 6 39 44 53 49 43 38 36 35 33 28 26 25 25 25 23 20 20 21 20 21 21 21 22 21 22 22 22 20 22 22 22 22 22
5 1 8 7 9 6 24 31 18 14 14 32 10 6 10 38 22 49 51 47 41 38 34 32 28 25 24 24 23 20 18 16 16 18 16 16 18 19 16 18 19 19 20 20 21 21 20 19 23
5 5 9 10 14 13 11 27 18 16 19 24 23 16 5 27 41 51 45 42 37 33 30 28 27 25 22 21 21 19 16 13 12 13 13 13 15 15 13 13 16 18 19 19 22 22 22 20 19
4 7 4 15 13 9 9 24 6 19 24 15 26 9 20 45 49 46 42 38 33 29 29 25 24 22 21 20 19 18 13 11 9 9 12 10 12 9 7 13 16 16 18 17 22 24 19 19 19
6 6 1 6 12 7 22 8 17 16 11 29 21 11 19 62 52 45 39 35 32 29 21 21 19 19 19 18 18 14 10 8 7 7 9 9 7 1 3 9 13 17 17 19 21 23 20 19 18
9 8 5 9 11 12 31 10 12 11 27 8 4 30 59 66 55 47 41 36 33 29 23 23 22 19 18 19 18 14 11 8 8 7 7 8 5 4 4 10 17 18 20 19 19 20 21 24 23
8 8 12 11 11 13 35 26 27 14 12 10 18 41 65 62 55 48 42 40 34 35 28 24 25 23 22 21 16 11 12 11 8 7 8 8 7 6 4 6 13 18 16 19 20 20 21 24 27
7 10 8 9 21 37 29 34 18 34 4 18 55 77 64 59 54 46 41 35 32 33 26 26 29 28 26 21 13 12 11 11 9 10 9 9 12 10 7 2 3 11 16 18 18 20 22 22 26
7 9 9 18 27 19 15 33 22 6 11 33 66 73 66 56 54 48 42 39 36 36 31 27 29 25 23 21 12 12 12 13 12 10 11 12 17 18 15 10 7 5 13 16 19 19 28 26 26
8 3 22 29 28 25 31 29 21 16 37 41 55 61 60 53 47 44 35 33 34 39 33 34 28 23 23 24 20 12 16 17 14 17 13 14 17 20 24 17 19 15 16 16 20 23 25 29 28
17 17 20 28 41 22 26 29 15 25 52 55 55 60 56 51 47 40 42 39 41 37 40 35 37 27 26 25 21 19 18 20 19 13 11 18 21 23 21 23 29 23 24 22 20 18 15 26 26
15 10 11 8 12 7 25 8 9 51 54 60 56 53 53 50 46 44 43 44 39 37 33 32 30 31 31 28 26 24 23 19 15 9 15 18 23 28 32 31 26 26 20 29 24 28 21 26 28
7 9 5 6 2 2 11 3 22 50 53 48 56 57 56 54 51 45 44 44 39 39 44 38 32 31 33 25 20 25 28 27 15 10 11 13 14 18 21 28 29 28 30 31 32 29 32 32 33
11 5 5 8 4 5 8 8 22 53 51 54 60 65 66 60 59 53 50 49 47 43 45 48 39 27 21 16 15 14 23 21 18 15 14 14 12 5 9 12 18 20 19 21 22 28 28 27 27
8 5 9 5 12 10 7 12 30 56 56 57 58 61 70 68 67 64 59 48 51 52 50 42 42 34 26 19 17 12 16 19 23 20 16 15 10 10 13 12 10 8 14 16 18 16 18 22 25
4 9 9 12 13 3 13 18 31 52 51 43 45 55 65 70 57 59 56 49 56 58 58 54 51 41 39 31 21 21 17 15 18 20 16 8 10 6 10 15 13 9 11 9 5 12 16 20 20
9 9 11 6 9 1 9 10 16 20 44 52 51 60 66 72 64 61 68 46 63 54 63 65 57 47 40 31 24 14 16 12 11 13 10 10 9 5 8 12 12 10 13 8 9 16 19 21 12
7 9 8 5 8 2 6 9 13 15 32 39 41 50 70 73 68 72 77 66 69 57 65 64 65 55 45 34 26 23 21 21 10 12 11 13 13 12 10 12 11 9 13 14 16 17 21 25 20
13 8 16 14 10 14 9 12 11 14 18 21 46 47 71 72 73 76 74 68 72 63 52 59 60 58 49 39 30 29 26 26 32 22 21 19 14 12 11 18 15 12 14 17 20 20 25 24 24
23 5 22 28 12 9 1 5 16 1 16 19 38 66 63 80 78 82 77 64 67 67 55 56 62 56 54 47 34 23 27 27 29 26 24 30 21 18 22 20 15 17 23 23 21 24 29 32 32
10 8 11 9 10 3 13 19 13 11 32 12 33 62 60 64 84 82 78 68 69 65 49 41 58 58 50 48 37 31 21 26 28 23 32 32 31 29 27 27 25 24 26 29 30 31 33 32 20
6 12 6 5 2 10 9 13 27 11 16 22 33 49 55 63 73 80 84 79 70 73 59 38 43 54 50 47 41 34 32 26 27 26 32 33 34 34 32 25 25 27 28 30 28 27 25 21 12
11 17 11 9 7 9 13 12 14 10 24 28 33 50 55 52 65 79 82 88 77 73 79 52 41 57 53 42 41 37 35 31 27 31 31 33 32 27 23 24 25 27 28 27 25 22 20 18 16
1 7 10 12 7 4 5 14 18 3 15 11 19 29 44 58 69 73 82 91 82 70 76 62 46 51 51 42 39 34 31 29 27 26 28 30 29 27 28 29 30 30 29 25 21 16 14 11 12
13 10 3 5 6 9 8 8 11 12 18 17 16 39 61 59 62 69 75 82 80 65 61 56 43 48 45 40 35 32 28 28 26 24 26 26 27 28 29 27 27 25 19 13 9 8 9 9 11
6 2 5 10 9 12 7 13 17 21 27 27 28 50 56 67 66 67 70 79 79 65 67 58 48 48 40 34 34 32 29 29 28 26 26 26 26 23 23 20 14 11 10 6 5 3 5 10 10
11 16 14 10 11 6 6 14 11 24 14 15 29 41 50 57 72 60 73 81 80 76 70 60 56 48 41 41 35 25 23 26 24 21 19 17 16 16 11 8 6 4 3 5 2 1 1 8 9
Wind_Direction_850mb
138 146 138 135 63 70 350 354 53 111 130 121 149 112 101 36 52 167 147 147 151 144 139 138 133 131 127 127 130 133 131 132 135 135 137 136 140 144 147 149 152 157 161 152 144 143 149 147 143
131 141 140 84 73 65 325 261 247 149 141 143 88 113 46 74 86 137 147 155 152 149 146 144 140 134 129 128 136 135 136 137 137 142 148 149 147 149 154 151 148 148 151 150 146 138 146 148 148
112 54 68 86 102 130 157 208 29 81 127 147 118 84 77 104 126 140 154 157 159 152 150 148 146 141 136 135 135 137 139 139 139 142 142 140 148 146 150 150 152 150 147 141 136 138 148 149 144
87 7 351 60 82 341 141 97 124 120 130 135 120 69 80 184 138 156 154 158 159 154 151 152 149 148 143 136 138 143 141 138 136 137 138 136 132 142 146 149 155 152 151 146 149 145 147 142 140
343 34 40 74 69 57 110 185 165 145 118 132 127 95 73 150 153 151 156 158 162 156 157 159 162 155 149 148 147 145 141 142 142 141 134 130 131 134 142 147 151 150 150 151 154 154 150 153 153
329 32 51 84 99 99 129 176 161 93 104 111 98 91 82 168 162 153 157 158 161 161 160 163 158 155 154 156 156 156 152 148 142 142 145 134 136 141 145 151 157 157 156 156 158 157 154 157 159
179 88 285 98 107 137 150 143 281 127 123 97 123 86 134 150 156 152 156 158 161 164 164 167 163 161 165 168 167 164 166 164 152 155 162 156 151 141 167 171 171 171 167 169 164 159 159 165 176
196 91 201 103 176 183 150 108 130 93 66 126 107 163 167 158 154 153 158 162 165 166 173 181 185 185 177 171 171 172 180 180 180 173 177 182 173 195 208 208 192 179 181 182 180 176 170 179 189
185 65 205 142 164 144 154 135 170 99 129 108 128 157 162 155 158 165 172 177 180 180 179 190 191 189 184 177 176 180 196 194 201 193 206 189 197 255 326 265 210 196 190 198 195 194 191 187 195
146 125 209 188 147 149 167 157 137 126 126 67 112 149 152 159 168 176 183 186 187 188 188 183 184 185 188 184 189 201 220 209 208 187 191 196 197 224 16 4 191 192 201 207 209 214 218 212 206
147 169 171 135 156 150 146 135 126 139 199 203 153 152 160 167 176 186 192 206 197 190 196 185 182 194 201 190 204 241 242 230 199 191 192 207 214 235 279 313 187 197 221 232 233 238 241 233 225
101 91 134 143 153 140 122 133 134 110 197 171 160 162 166 176 185 189 196 200 203 200 193 177 180 195 200 206 211 226 243 227 203 215 226 245 245 259 256 265 269 236 243 247 243 248 250 242 235
34 42 92 127 152 127 130 145 142 131 147 152 158 170 178 190 198 203 206 209 212 211 202 197 193 197 209 222 230 269 250 241 246 242 251 271 252 252 249 260 262 257 262 271 267 264 263 238 256
75 95 99 112 94 77 107 137 118 150 156 159 167 177 185 192 195 196 204 207 212 216 220 217 214 219 225 231 235 259 249 243 247 254 267 283 267 263 265 271 261 246 264 266 265 255 248 254 264
111 65 35 32 115 94 113 56 135 158 162 166 177 183 192 199 200 202 194 204 207 213 215 220 220 224 231 237 238 233 246 248 246 284 304 291 276 263 270 278 285 288 266 291 292 292 282 270 265
77 70 356 281 214 1 120 47 140 166 167 180 186 196 202 204 205 210 212 213 210 213 221 222 218 217 224 231 232 239 239 240 245 298 294 313 298 255 260 271 283 290 285 282 291 284 275 274 270
358 233 230 237 306 139 107 148 166 180 184 191 198 201 210 214 214 217 218 219 219 218 218 221 214 211 216 214 230 250 218 232 249 274 293 303 351 308 287 288 289 277 283 288 288 287 281 282 283
196 192 266 248 216 150 116 162 170 187 196 205 204 212 210 213 222 217 219 219 225 227 225 216 216 211 204 209 218 226 223 231 253 265 269 292 288 285 302 292 300 297 276 284 288 283 281 288 286
196 172 226 271 169 147 188 156 177 193 209 216 210 211 212 221 228 225 216 221 222 224 225 219 215 209 206 202 203 222 228 245 268 271 251 274 279 292 292 296 276 300 299 287 297 309 302 303 296
210 190 244 308 109 141 177 206 205 194 210 213 216 218 222 220 223 219 208 213 212 216 220 220 218 214 217 214 208 215 208 236 251 251 237 247 256 291 318 294 283 265 277 275 269 275 288 296 300
262 231 211 197 137 41 110 282 219 234 230 226 224 230 229 222 214 212 211 211 212 217 214 216 219 215 221 214 212 216 208 187 234 249 232 258 262 271 267 269 260 272 275 273 261 257 263 279 284
285 215 252 181 152 221 155 267 265 206 233 230 227 223 232 224 216 208 208 211 213 218 217 220 214 217 220 218 226 236 250 217 225 245 237 231 258 279 271 258 266 269 281 279 271 272 273 281 286
250 232 252 197 151 109 195 67 272 331 251 223 222 226 222 220 214 210 209 213 211 211 215 223 221 220 216 221 221 244 251 235 238 224 235 235 254 267 273 266 260 270 281 282 286 281 282 282 281
265 292 13 37 120 115 228 179 280 195 228 216 226 223 223 217 216 216 209 211 209 205 205 215 215 217 219 221 223 239 235 237 231 244 229 242 258 274 267 260 274 286 288 291 292 288 284 283 290
114 62 312 5 93 207 224 139 237 258 227 202 215 219 217 221 215 215 211 205 205 205 205 206 219 220 216 217 224 231 225 234 240 237 234 243 255 269 278 266 281 291 297 298 298 297 293 289 271
202 162 160 229 220 246 156 228 248 191 254 226 238 226 216 220 215 215 215 208 202 206 209 214 225 223 222 221 219 217 222 238 231 226 241 243 255 260 267 282 297 298 298 299 298 294 294 297 284
282 207 202 106 10 80 242 293 307 228 245 214 200 203 216 223 217 215 215 209 202 205 210 217 222 220 219 217 220 221 223 224 227 241 241 246 257 269 281 288 290 293 296 294 288 284 286 286 290
159 178 319 0 180 235 280 272 237 271 222 207 199 216 230 228 220 216 216 206 202 199 203 209 212 207 207 211 215 221 220 228 238 240 243 248 257 269 279 286 289 292 295 296 289 278 256 262 289
292 222 79 132 137 178 209 257 217 225 233 194 205 207 207 213 209 212 213 205 201 197 199 201 202 202 205 205 211 217 216 224 224 228 239 250 261 273 283 289 298 297 281 272 273 247 232 272 299
167 209 158 134 259 187 172 268 230 222 244 174 212 201 211 217 204 205 201 197 195 192 194 200 194 200 206 201 200 197 202 202 212 215 225 243 264 277 283 296 306 280 171 107 108 100 234 298 313